Regional Weather Roundup
Issued by NWS

Home | Current Version | Previous Version | Graphics & Text | Print | Product List | Glossary On
Versions: 1 2 3 4 5 6 7 8 9 10 11 12 13 14 15 16 17 18 19 20 21 22 23 24 25 26 27 28 29 30 31 32 33 34 35 36 37 38 39 40 41 42 43 44 45 46 47 48 49 50
000
ASUS43 KLOT 191612
RWRIL

ILLINOIS REGIONAL WEATHER ROUNDUP
NATIONAL WEATHER SERVICE CHICAGO/ROMEOVILLE IL
1000 AM CST SUN FEB 19 2017

NOTE: "FAIR" INDICATES FEW OR NO CLOUDS BELOW 12,000 FEET WITH NO
SIGNIFICANT WEATHER AND/OR OBSTRUCTIONS TO VISIBILITY.

* THESE STATIONS ARE NOT UNDER NWS QUALITY CONTROL. THEY ALSO MAY NOT
  REPORT WEATHER SUCH AS PRECIPITATION OR FOG.

ILZ001-002-007-009-015-016-024-191700-
NORTHWEST ILLINOIS

CITY           SKY/WX    TMP DP  RH WIND       PRES   REMARKS
MOLINE         SUNNY     54  40  59 CALM      30.04R
STERLING*      SUNNY     50  42  74 E5        30.05R
SAVANNA*       SUNNY     46  37  72 CALM      30.04S
$$

ILZ003-004-008-010-011-017-018-191700-
NORTH CENTRAL ILLINOIS

CITY           SKY/WX    TMP DP  RH WIND       PRES   REMARKS
ROCKFORD       MOSUNNY   53  39  59 CALM      30.07R
FREEPORT*      SUNNY     50  41  70 CALM      30.06S
ROCHELLE*      SUNNY     53  40  61 CALM      30.06R
DE KALB*       SUNNY     56  34  42 E7        30.05S
PERU*          SUNNY     52  38  60 CALM      30.06R
$$

ILZ005-006-012>014-019>023-191700-
NORTHEAST ILLINOIS

CITY           SKY/WX    TMP DP  RH WIND       PRES   REMARKS
CHICAGO-OHARE  MOSUNNY   57  33  40 E3        30.05R
CHICAGO-MIDWAY MOSUNNY   56  34  43 CALM      30.05R
AURORA         SUNNY     57  36  45 E6        30.05S
LANSING*       SUNNY     55  42  61 CALM      30.06S
JOLIET*        SUNNY     57  44  61 CALM      30.06F
WAUKEGAN       SUNNY     56  31  38 NE3       30.04S
DUPAGE AIRPORT SUNNY     58  31  35 E5        30.04S
KANKAKEE*      SUNNY     47  41  80 CALM      30.08R
WHEELING       SUNNY     55  33  43 CALM      30.06R
MORRIS*        SUNNY     55  42  62 CALM      30.05S
ROMEOVILLE*    SUNNY     57  41  54 E5        30.06S
NORTHERLY ISL    N/A     55  30  38 E2          N/A
$$

LMZ740>746-191700-
SOUTHERN LAKE MICHIGAN

STATION/POSITION SKY/WX   TEMP    WIND        PRES    VSBY  WAVE
                          AIR SEA DIR/SP/G                  HT/PER
                          (F)     (DEG/KT/KT) (MB)    (MI)  (FT/S)
HARRISON CRIB              51     300/  3/  3   N/A
BURNHAM HARBOR             55     110/  2/  3   N/A
CALUMET HARBOR             52      60/  5/  6 1017.3R
BURNS HARBOR               49     300/  2/  3 1018.6R
MICHIGAN CITY              46     230/  3/  3   N/A
$$

ILZ025>027-034>036-040-047-049-050-058-095>099-191700-
WEST-CENTRAL ILLINOIS

CITY           SKY/WX    TMP DP  RH WIND       PRES   REMARKS
QUINCY         SUNNY     59  50  72 SW9       30.04R
GALESBURG*     SUNNY     58  39  48 SE5       30.03F
MACOMB*        SUNNY     55  43  63 SE5       30.06R HAZE
JACKSONVILLE*  SUNNY     55  47  75 SW5       30.06R
PITTSFIELD*    SUNNY     60  51  72 CALM      30.06R
$$

ILZ028>032-037-038-041>044-048-051>054-059>061-191700-
CENTRAL ILLINOIS

CITY           SKY/WX    TMP DP  RH WIND       PRES   REMARKS
PONTIAC        SUNNY     51  44  78 CALM      30.07S
BLOOMINGTON    PTSUNNY   47  47 100 S6        30.08R FOG
DECATUR        FOG       49  48  97 S6        30.08R VSB 1/2
PEORIA         SUNNY     46  44  93 S5        30.06S
LACON*         SUNNY     51  42  70 CALM      30.05S
LINCOLN*       FOG       47  47 100 S6        30.07S VSB 1/4
SPRINGFIELD    FOG       49  48  97 S5        30.07R VSB 1
TAYLORVILLE    FOG       48  48 100 CALM      30.08S VSB 1/4
$$

ILZ033-039-045-046-055>057-062-063-191700-
EAST-CENTRAL ILLINOIS

CITY           SKY/WX    TMP DP  RH WIND       PRES   REMARKS
CHAMPAIGN      CLOUDY    49  47  93 SW7       30.09R FOG
RANTOUL*       CLOUDY    49  49  99 S5        30.08S FOG
MATTOON        CLOUDY    51  50  96 S5        30.08R FOG
PARIS*         CLOUDY    51  48  90 S5        30.10R FOG
$$

ILZ079-100>102-191700-
SOUTHWEST ILLINOIS

CITY           SKY/WX    TMP DP  RH WIND       PRES   REMARKS
ALTON          FOG       48  48 100 CALM      30.08R VSB 1/4
BELLEVILLE     FOG       50  50 100 CALM      30.07S VSB 1
CAHOKIA*       FOG       52  50  93 S6        30.08R VSB 3/4
SPARTA*        CLOUDY    51  51  99 S5        30.09S FOG
$$

ILZ064>066-069>071-074>076-080>082-084>086-088>090-092>094-191700-
SOUTH-CENTRAL ILLINOIS

CITY           SKY/WX    TMP DP  RH WIND       PRES   REMARKS
CARBONDALE     CLOUDY    54  53  97 CALM      30.10S FOG
CAIRO*         FOG       49  49 100 CALM      30.12R VSB 1
EFFINGHAM*     CLOUDY    51  51 100 S5        30.11R FOG
MARION         CLOUDY    55  55 100 CALM      30.11R FOG
MT. VERNON     CLOUDY    54  51  90 SW6       30.10R FOG
CENTRALIA*     CLOUDY    54  52  93 SE5       30.08S FOG
SALEM*         CLOUDY    54  51  89 SW5       30.09R FOG
METROPOLIS*    FOG       50  50  99 CALM      30.12S VSB 1/2
$$

ILZ067-068-072-073-078-083-087-091-191700-
SOUTHEAST ILLINOIS

CITY           SKY/WX    TMP DP  RH WIND       PRES   REMARKS
LAWRENCEVILLE  CLOUDY    51  48  89 VRB3      30.11R FOG
FLORA*         CLOUDY    53  51  93 SE6       30.10R FOG
FAIRFIELD*     CLOUDY    52  51  97 CALM      30.10R FOG
HARRISBURG*    CLOUDY    53  52  97 SE3       30.11S FOG
ROBINSON*      CLOUDY    52  48  88 S5        30.11S FOG
CARMI*         CLOUDY    51  51 100 SE3       30.11R FOG
$$

ABBREVIATIONS USED IN REMARKS
   TC - TEMPERATURE IN CELSIUS
  WCI - WIND CHILL INDEX
   HX - HEAT INDEX
  VSB - VISIBILITY
$$





USA.gov is the U.S. government's official web portal to all federal, state and local government web resources and services.